TIANWANG 1C (TW-1C)

Last updated on Sat Feb 27 2021 06:34:51 GMT+0000 (Coordinated Universal Time)

1 40926U 15051B 21057.93770894 .05243455 22735-5 10757-2 0 9999 2 40926 97.0197 120.9742 0006610 258.8279 223.7215 16.31196197307135

Satellite not in orbit